When you browse on this site, cookies collect data to enhance your experience and personalize the content and advertising you see.
Visit our Privacy Policy to learn more. By continuing to use the site, you agree to this use of cookies and data.
  • In Denmark
  • List of Countries
  • For 7 days
  • Water Temperature
  • Weather Map
  • Weather Widgets
  • user-avatar
    Login

    Hourly Weather Kostyushkovichi

    Today, 20 October, Sunday

    Time Temperature Precipitation Wind Pressure Humidity
    00:00 +12°C° 0 mm 3 mps 749 mmHg 85%
    01:00 +12°C° 0 mm 3 mps 749 mmHg 85%
    02:00 +12°C° 0 mm 3 mps 749 mmHg 85%
    03:00 +11°C° 0 mm 3 mps 749 mmHg 86%
    04:00 +11°C° 0 mm 3 mps 749 mmHg 87%
    05:00 +10°C° 0 mm 3 mps 749 mmHg 88%
    06:00 +11°C° 0 mm 3 mps 749 mmHg 86%
    07:00 +11°C° 0 mm 3 mps 749 mmHg 84%
    08:00 +11°C° 0 mm 3 mps 749 mmHg 82%
    09:00 +12°C° 0 mm 3 mps 750 mmHg 78%
    10:00 +14°C° 0 mm 3 mps 750 mmHg 73%
    11:00 +16°C° 0 mm 3 mps 750 mmHg 69%
    12:00 +16°C° 0 mm 3 mps 750 mmHg 70%
    13:00 +17°C° 0 mm 3 mps 750 mmHg 70%
    14:00 +17°C° 0 mm 3 mps 750 mmHg 71%
    15:00 +17°C° 0 mm 2 mps 750 mmHg 73%
    16:00 +16°C° 0 mm 2 mps 750 mmHg 75%
    17:00 +15°C° 0 mm 2 mps 750 mmHg 78%
    18:00 +15°C° 0 mm 2 mps 750 mmHg 79%
    19:00 +13°C° 0 mm 3 mps 750 mmHg 80%
    20:00 +13°C° 0 mm 3 mps 750 mmHg 82%
    21:00 +13°C° 0 mm 3 mps 750 mmHg 82%
    22:00 +12°C° 0 mm 3 mps 750 mmHg 83%
    23:00 +12°C° 0 mm 3 mps 750 mmHg 83%

    Tomorrow, 21 October, Monday

    Time Temperature Precipitation Wind Pressure Humidity
    00:00 +12°C° 0 mm 3 mps 750 mmHg 85%
    01:00 +11°C° 0 mm 3 mps 750 mmHg 86%
    02:00 +12°C° 0 mm 2 mps 750 mmHg 88%
    03:00 +12°C° 0 mm 2 mps 750 mmHg 89%
    04:00 +12°C° 0 mm 2 mps 750 mmHg 90%
    05:00 +10°C° 0 mm 2 mps 749 mmHg 91%
    06:00 +11°C° 0 mm 3 mps 750 mmHg 90%
    07:00 +11°C° 0 mm 3 mps 750 mmHg 90%
    08:00 +12°C° 0 mm 3 mps 750 mmHg 89%
    09:00 +13°C° 0 mm 3 mps 750 mmHg 85%
    10:00 +14°C° 0 mm 3 mps 750 mmHg 80%
    11:00 +17°C° 0 mm 3 mps 750 mmHg 76%
    12:00 +17°C° 0 mm 3 mps 750 mmHg 74%
    13:00 +18°C° 0 mm 3 mps 750 mmHg 72%
    14:00 +19°C° 0 mm 3 mps 750 mmHg 70%
    15:00 +17°C° 0 mm 2 mps 750 mmHg 76%
    16:00 +16°C° 0 mm 2 mps 750 mmHg 81%
    17:00 +15°C° 0 mm 1 mps 750 mmHg 87%
    18:00 +14°C° 0 mm 1 mps 750 mmHg 88%
    19:00 +14°C° 0 mm 1 mps 751 mmHg 89%
    20:00 +12°C° 0 mm 0 mps 751 mmHg 90%
    21:00 +12°C° 0 mm 0 mps 751 mmHg 90%
    22:00 +12°C° 0 mm 0 mps 751 mmHg 91%
    23:00 +12°C° 0 mm 0 mps 751 mmHg 91%

    Day after tomorrow, 22 October, Tuesday

    Time Temperature Precipitation Wind Pressure Humidity
    00:00 +13°C° 0 mm 1 mps 751 mmHg 92%
    01:00 +13°C° 0 mm 1 mps 751 mmHg 92%
    02:00 +13°C° 0 mm 1 mps 751 mmHg 92%
    03:00 +12°C° 0 mm 1 mps 751 mmHg 92%
    04:00 +12°C° 0 mm 1 mps 751 mmHg 93%
    05:00 +12°C° 0 mm 1 mps 751 mmHg 93%
    06:00 +12°C° 0 mm 1 mps 751 mmHg 92%
    07:00 +12°C° 0 mm 1 mps 751 mmHg 92%
    08:00 +13°C° 0 mm 1 mps 752 mmHg 92%
    09:00 +14°C° 0 mm 1 mps 752 mmHg 87%
    10:00 +15°C° 0 mm 2 mps 752 mmHg 82%
    11:00 +16°C° 0 mm 2 mps 752 mmHg 77%
    12:00 +18°C° 0 mm 1 mps 752 mmHg 74%
    13:00 +18°C° 0 mm 1 mps 752 mmHg 72%
    14:00 +19°C° 0 mm 1 mps 752 mmHg 70%
    15:00 +18°C° 0 mm 1 mps 751 mmHg 75%
    16:00 +16°C° 0 mm 1 mps 751 mmHg 80%
    17:00 +14°C° 0 mm 1 mps 751 mmHg 85%
    18:00 +14°C° 0 mm 1 mps 751 mmHg 86%
    19:00 +14°C° 0 mm 1 mps 751 mmHg 88%
    20:00 +13°C° 0 mm 2 mps 751 mmHg 89%
    21:00 +13°C° 0 mm 1 mps 751 mmHg 90%
    22:00 +13°C° 0 mm 1 mps 751 mmHg 90%
    23:00 +12°C° 0 mm 1 mps 751 mmHg 91%

    23 October, Wednesday

    Time Temperature Precipitation Wind Pressure Humidity
    00:00 +12°C° 0 mm 1 mps 751 mmHg 91%
    01:00 +12°C° 0 mm 1 mps 751 mmHg 91%
    02:00 +12°C° 0 mm 2 mps 751 mmHg 92%
    03:00 +12°C° 0 mm 2 mps 750 mmHg 92%
    04:00 +12°C° 0 mm 2 mps 750 mmHg 93%
    05:00 +10°C° 0 mm 2 mps 750 mmHg 93%
    06:00 +12°C° 0 mm 2 mps 750 mmHg 93%
    07:00 +12°C° 0 mm 2 mps 750 mmHg 93%
    08:00 +12°C° 0 mm 2 mps 750 mmHg 93%
    09:00 +13°C° 0 mm 2 mps 749 mmHg 88%
    10:00 +14°C° 0 mm 3 mps 749 mmHg 83%
    11:00 +15°C° 0 mm 4 mps 749 mmHg 78%
    12:00 +15°C° 0 mm 4 mps 748 mmHg 77%
    13:00 +17°C° 0 mm 4 mps 748 mmHg 76%
    14:00 +17°C° 0 mm 4 mps 748 mmHg 74%
    15:00 +16°C° 0 mm 3 mps 747 mmHg 79%
    16:00 +14°C° 0 mm 3 mps 747 mmHg 84%
    17:00 +13°C° 0 mm 3 mps 747 mmHg 89%
    18:00 +14°C° 0.2 mm 2 mps 747 mmHg 90%
    19:00 +14°C° 0.2 mm 2 mps 747 mmHg 91%
    20:00 +14°C° 0.2 mm 2 mps 747 mmHg 92%
    21:00 +13°C° 0.4 mm 3 mps 747 mmHg 93%
    22:00 +12°C° 0.4 mm 3 mps 747 mmHg 94%
    23:00 +12°C° 0.4 mm 3 mps 748 mmHg 95%

    24 October, Thursday

    Time Temperature Precipitation Wind Pressure Humidity
    00:00 +11°C° 0 mm 3 mps 748 mmHg 95%
    01:00 +10°C° 0 mm 2 mps 748 mmHg 95%
    02:00 +9°C° 0 mm 2 mps 748 mmHg 95%
    03:00 +9°C° 0 mm 2 mps 748 mmHg 95%
    04:00 +8°C° 0 mm 2 mps 749 mmHg 94%
    05:00 +7°C° 0 mm 2 mps 749 mmHg 94%
    06:00 +7°C° 0 mm 2 mps 749 mmHg 93%
    07:00 +7°C° 0 mm 2 mps 749 mmHg 91%
    08:00 +7°C° 0 mm 2 mps 749 mmHg 90%
    09:00 +8°C° 0 mm 2 mps 750 mmHg 84%
    10:00 +9°C° 0 mm 3 mps 750 mmHg 78%
    11:00 +10°C° 0 mm 3 mps 750 mmHg 72%
    12:00 +10°C° 0 mm 3 mps 750 mmHg 71%
    13:00 +11°C° 0 mm 3 mps 750 mmHg 70%
    14:00 +12°C° 0 mm 2 mps 750 mmHg 68%
    15:00 +10°C° 0 mm 2 mps 749 mmHg 73%
    16:00 +9°C° 0 mm 2 mps 749 mmHg 78%
    17:00 +9°C° 0 mm 1 mps 749 mmHg 84%
    18:00 +8°C° 0 mm 1 mps 750 mmHg 85%
    19:00 +8°C° 0 mm 1 mps 750 mmHg 87%
    20:00 +7°C° 0 mm 1 mps 750 mmHg 89%
    21:00 +7°C° 0 mm 1 mps 750 mmHg 90%
    22:00 +6°C° 0 mm 0 mps 750 mmHg 90%
    23:00 +6°C° 0 mm 0 mps 750 mmHg 90%

    25 October, Friday

    Time Temperature Precipitation Wind Pressure Humidity
    00:00 +5°C° 0 mm 0 mps 750 mmHg 90%
    01:00 +5°C° 0 mm 0 mps 750 mmHg 90%
    02:00 +6°C° 0 mm 1 mps 750 mmHg 90%
    03:00 +6°C° 0 mm 1 mps 750 mmHg 90%
    04:00 +6°C° 0 mm 1 mps 750 mmHg 90%
    05:00 +6°C° 0 mm 1 mps 750 mmHg 90%
    06:00 +6°C° 0 mm 1 mps 750 mmHg 89%
    07:00 +6°C° 0 mm 1 mps 750 mmHg 88%
    08:00 +6°C° 0 mm 2 mps 750 mmHg 87%
    09:00 +7°C° 0 mm 2 mps 750 mmHg 80%
    10:00 +9°C° 0 mm 2 mps 750 mmHg 73%
    11:00 +10°C° 0 mm 2 mps 750 mmHg 67%
    12:00 +12°C° 0 mm 2 mps 750 mmHg 66%
    13:00 +13°C° 0 mm 2 mps 750 mmHg 65%
    14:00 +12°C° 0 mm 3 mps 750 mmHg 64%
    15:00 +11°C° 0 mm 3 mps 749 mmHg 69%
    16:00 +10°C° 0 mm 3 mps 749 mmHg 75%
    17:00 +9°C° 0 mm 3 mps 749 mmHg 80%
    18:00 +9°C° 0 mm 3 mps 749 mmHg 82%
    19:00 +9°C° 0 mm 3 mps 748 mmHg 84%
    20:00 +9°C° 0 mm 3 mps 748 mmHg 86%
    21:00 +9°C° 0 mm 3 mps 748 mmHg 88%
    22:00 +9°C° 0 mm 3 mps 748 mmHg 89%
    23:00 +9°C° 0 mm 3 mps 748 mmHg 91%
    Show more